EW7535 Weather Reports


Display with metric or nautical units.
time (UTC)temp
F
wind
direction
speed
MPH
gust
MPH
rain 1hr
in
rain 24hr
in
rain mn
in
humidity
%
barometer
mb
20260901043059 75 84 0.0 7.0 0.00 0.91 0.91 72 1011.8
20260901041558 75 98 1.0 4.0 0.00 0.91 0.91 72 1011.5
20260901040103 75 106 0.0 3.0 0.00 0.91 0.91 71 1011.4
20260901034555 76 87 0.0 2.0 0.00 0.91 0.91 71 1011.2
20260901033055 75 122 0.0 2.0 0.00 0.91 0.91 72 1011.0
20260901031558 75 110 0.0 0.0 0.00 0.91 0.91 73 1010.9
20260901030051 75 129 0.0 0.0 0.00 0.91 0.91 71 1010.7
20260901024559 76 105 0.0 2.0 0.00 0.91 0.91 71 1010.3
20260901023050 75 124 0.0 0.0 0.00 0.91 0.91 74 1010.0
20260901021604 75 124 0.0 0.0 0.00 0.91 0.91 75 1009.7
20260901020049 75 124 0.0 0.0 0.00 0.91 0.91 76 1009.6
20260901014546 76 124 0.0 0.0 0.00 0.91 0.91 72 1009.4
20260901013049 77 124 0.0 0.0 0.00 0.91 0.91 74 1008.9
20260901011546 78 124 0.0 0.0 0.00 0.91 0.91 70 1008.8
20260901010016 79 124 0.0 0.0 0.00 0.91 0.91 69 1008.7
20260901004516 79 124 0.0 0.0 0.00 0.91 0.91 64 1008.7
20260901003013 80 124 0.0 0.0 0.00 0.91 0.91 67 1008.8
20260901001612 80 124 0.0 0.0 0.00 0.91 0.91 64 1008.8
20260831231523 79 108 2.0 8.0 0.00 0.91 0.91 67 1009.1
20260831230040 79 124 3.0 11.0 0.00 0.91 0.91 66 1009.1
20260831224603 79 130 3.0 9.0 0.00 0.91 0.91 68 1009.2
20260831223010 79 68 3.0 8.0 0.00 0.91 0.91 72 1009.3
20260831221509 78 103 1.0 5.0 0.01 0.91 0.91 74 1009.4
20260831220047 78 135 0.0 5.0 0.01 0.91 0.91 79 1009.8
20260831214544 75 128 0.0 2.0 0.03 0.91 0.91 87 1010.0
20260831213034 71 117 0.0 0.0 0.04 0.91 0.91 92 1010.4
20260831211540 70 96 2.0 6.0 0.04 0.90 0.90 91 1010.6
20260831210034 69 95 3.0 7.0 0.08 0.90 0.90 92 1011.1
20260831204535 69 125 0.0 4.0 0.10 0.88 0.88 91 1011.9
20260831203034 69 89 4.0 11.0 0.11 0.87 0.87 91 1012.0
20260831201528 69 88 5.0 11.0 0.11 0.85 0.85 92 1012.7
20260831200025 69 79 2.0 6.0 0.11 0.82 0.82 92 1013.3
20260831194524 68 99 1.0 7.0 0.09 0.78 0.78 92 1013.4
20260831193024 68 120 0.0 3.0 0.14 0.76 0.76 92 1013.5
20260831191536 68 141 1.0 3.0 0.19 0.74 0.74 92 1013.6
20260831190019 69 147 0.0 2.0 0.19 0.71 0.71 92 1013.6
20260831184518 68 335 1.0 5.0 0.17 0.69 0.69 92 1013.1
20260831183004 68 306 2.0 10.0 0.10 0.62 0.62 91 1013.7
20260831181549 68 266 10.0 20.0 0.03 0.55 0.55 90 1013.5
20260831180036 69 278 9.0 15.0 0.03 0.52 0.52 90 1012.7
20260831174532 69 321 7.0 20.0 0.08 0.52 0.52 90 1012.9
20260831173038 69 273 9.0 16.0 0.08 0.52 0.52 87 1012.8
20260831171527 71 309 6.0 12.0 0.08 0.52 0.52 88 1012.3
20260831170026 72 285 6.0 19.0 0.06 0.50 0.50 84 1012.2
20260831164526 76 274 5.0 12.0 0.00 0.44 0.44 72 1011.9
20260831163026 76 300 5.0 10.0 0.00 0.44 0.44 76 1011.4
20260831161519 76 274 6.0 11.0 0.00 0.44 0.44 77 1011.0
20260831160027 77 301 0.0 4.0 0.00 0.44 0.44 77 1010.8
20260831154521 78 191 0.0 2.0 0.00 0.44 0.44 75 1010.6
20260831153023 77 123 0.0 2.0 0.00 0.44 0.44 77 1010.5
20260831151526 75 130 0.0 2.0 0.00 0.44 0.44 81 1010.6
20260831150056 75 158 0.0 2.0 0.00 0.44 0.44 84 1010.2
20260831143102 72 122 0.0 2.0 0.00 0.44 0.44 88 1009.7
20260831141550 71 109 0.0 3.0 0.00 0.44 0.44 88 1009.7
20260831140050 71 82 2.0 7.0 0.01 0.44 0.44 89 1009.6
20260831134556 70 122 1.0 12.0 0.04 0.44 0.44 88 1009.5
20260831133045 71 349 2.0 8.0 0.18 0.44 0.44 82 1009.3
20260831131547 69 307 5.0 12.0 0.20 0.44 0.44 86 1009.4
20260831130052 68 285 7.0 14.0 0.22 0.43 0.43 90 1009.2
20260831124548 68 297 5.0 16.0 0.21 0.39 0.39 90 1010.3
20260831123009 68 330 6.0 14.0 0.20 0.24 0.24 89 1010.7
20260831121509 69 320 10.0 22.0 0.24 0.24 0.24 90 1010.2
20260831120037 69 295 10.0 20.0 0.21 0.21 0.21 88 1010.0
20260831114532 70 295 6.0 15.0 0.18 0.18 0.18 84 1010.0
20260831113024 75 292 4.0 17.0 0.04 0.04 0.04 73 1009.2
20260831111518 79 284 13.0 20.0 0.00 0.00 0.00 60 1008.3
20260831110020 82 146 0.0 0.0 0.00 0.00 0.00 54 1007.6
20260831104512 81 121 0.0 0.0 0.00 0.00 0.00 55 1007.0
20260831103014 81 116 0.0 3.0 0.00 0.00 0.00 55 1006.8
20260831101541 81 268 0.0 0.0 0.00 0.00 0.00 55 1006.9
20260831100059 80 268 0.0 0.0 0.00 0.00 0.00 56 1006.9
20260831094538 80 268 0.0 0.0 0.00 0.00 0.00 55 1006.9
20260831093046 80 268 0.0 0.0 0.00 0.00 0.00 56 1006.7
20260831091538 80 268 0.0 0.0 0.00 0.00 0.00 56 1006.6
20260831090034 81 268 0.0 0.0 0.00 0.00 0.00 54 1006.9
20260831084502 81 268 0.0 0.0 0.00 0.00 0.00 54 1006.8
20260831083100 82 268 0.0 0.0 0.00 0.00 0.00 53 1006.9
20260831081558 83 268 0.0 0.0 0.00 0.00 0.00 52 1006.9
20260831080053 83 268 0.0 0.0 0.00 0.00 0.00 51 1007.0
20260831074551 84 268 0.0 0.0 0.00 0.00 0.00 50 1007.1
20260831073049 84 268 0.0 0.0 0.00 0.00 0.00 50 1007.1
20260831071518 84 268 0.0 0.0 0.00 0.00 0.00 49 1007.2
20260831070018 85 268 0.0 4.0 0.00 0.00 0.00 48 1007.2
20260831064548 86 268 0.0 0.0 0.00 0.00 0.00 47 1007.2
20260831063047 86 290 0.0 4.0 0.00 0.00 0.00 47 1007.3
20260831061545 86 285 1.0 4.0 0.00 0.00 0.00 47 1007.3
20260831060049 87 297 4.0 7.0 0.00 0.00 0.00 46 1007.3
20260831054544 87 295 1.0 9.0 0.00 0.00 0.00 45 1007.3
20260831053049 87 293 2.0 7.0 0.00 0.00 0.00 44 1007.2
20260831051541 87 300 2.0 7.0 0.00 0.00 0.00 44 1006.9
20260831050040 88 305 4.0 11.0 0.00 0.00 0.00 44 1006.8
20260831044544 88 304 4.0 12.0 0.00 0.00 0.00 43 1006.9